#timestamp,LO_Frequency,Hit,StdDev 
1627336815.3,286047000.3,N
1627336835.2,286047000.6,N
1627336855.9,286047000.4,N
1627336875.7,286047000.6,N
1627336895.6,286047000.7,N
1627336915.4,286047000.9,N
1627336935.2,286047001.1,N
1627336955.1,286046998.5,N
1627336956.0,286046998.5,N
1627336975.8,286046998.3,N
1627336995.7,286046998.9,N
1627337015.5,286046996.9,N
1627337035.3,286046999.4,N
1627337055.2,286046999.6,N
1627337075.0,286047001.0,N
1627337075.9,286047001.0,N
1627337095.7,286046998.6,N
1627337115.6,286046998.2,N
1627337135.4,286047000.2,N
1627337155.3,286047002.7,N
1627337175.1,286047002.4,N
1627337176.0,286047002.4,N
1627337195.8,286047002.4,N
1627337215.7,286047002.6,N
1627337235.5,286047000.2,N
1627337255.4,286046999.9,N
1627337275.2,286047000.2,N
1627337295.0,286046999.9,N
1627337295.9,286046999.9,N
1627337315.8,286047001.2,N
1627337335.6,286046998.2,N
1627337355.5,286047000.8,N
1627337375.3,286047001.1,N
1627337395.1,286046998.8,N
1627337415.9,286046998.6,N
1627337435.7,286046998.8,N
1627337455.5,286046998.4,N
1627337475.4,286046998.5,N
1627337495.2,286047000.9,N
1627337515.1,286047000.6,N
1627337516.0,286047000.6,N
1627337535.8,286046999.9,N
1627337555.6,286047000.4,N
1627337575.5,286046999.7,N
1627337595.3,286046999.7,N
1627337615.1,286047002.7,N
1627337635.9,286047002.6,N
1627337655.7,286047001.5,N
1627337675.6,286047003.9,N
1627337695.8,286047004.0,N
1627337715.7,286047001.3,N
1627337735.5,286047004.1,N
1627337755.4,286047004.2,N
1627337775.2,286047003.8,N
1627337795.0,286047001.7,N
1627337795.9,286047001.7,N
1627337815.8,286047001.3,N
1627337835.6,286047001.3,N
1627337855.5,286047004.3,N
1627337875.3,286047004.4,N
1627337895.1,286047001.8,N
1627337915.9,286047004.3,N
1627337935.7,286047001.3,N
1627337955.5,286047001.4,N
1627337975.4,286047002.0,N
1627337995.2,286047001.9,N
1627338015.0,286047002.8,N
1627338016.0,286047002.8,N
1627338035.8,286047001.4,N
1627338055.6,286047001.7,N
1627338075.5,286047003.3,N
1627338095.3,286047005.9,Y
1627338115.1,286047002.0,P
1627338135.9,286047001.9,P
1627338155.7,286047002.2,P
1627338175.6,286047001.9,Y
1627338195.4,286047000.1,P
1627338215.2,286047002.8,N
1627338235.1,286046999.7,N
1627338236.0,286046999.7,N
1627338285.8,286047002.3,E
1627338295.7,286047002.8,N
1627338315.6,286046998.3,P
1627338335.4,286046999.6,N
1627338355.3,286046999.5,N
1627338375.1,286046996.7,N
1627338395.8,286046997.0,N
1627338415.7,286046999.0,N
1627338435.5,286047001.1,N
1627338455.4,286046998.9,N
1627338475.2,286046999.4,N
1627338495.0,286046996.6,N
1627338495.9,286046996.6,N
1627338515.8,286046996.6,N
1627338535.6,286046998.0,N
1627338555.4,286046997.6,N
1627338575.3,286046998.0,N
1627338595.1,286046997.0,N
1627338615.9,286046995.8,N
1627338635.7,286046995.3,N
1627338655.5,286046995.3,N
1627338675.4,286046995.5,N
1627338695.2,286046995.5,N
1627338715.0,286046995.8,N
1627338716.0,286046995.8,N
1627338735.8,286046997.9,N
1627338755.6,286046996.5,N
1627338775.5,286046998.7,N
1627338795.3,286046998.6,N
1627338815.1,286046998.3,N
1627338835.9,286046998.6,N
1627338855.7,286047001.0,N
1627338875.6,286047000.5,N
1627338895.4,286047000.5,N
1627338915.2,286046998.5,N
1627338935.1,286046998.4,N
1627338936.0,286046998.4,N
1627338955.8,286046998.6,N
1627338975.6,286046998.7,N
1627338995.5,286047001.1,N
1627339015.3,286046999.0,N
1627339035.2,286046998.7,N
1627339055.9,286046998.4,N
1627339075.7,286047001.2,N
1627339095.6,286046998.6,N
1627339115.4,286046998.8,N
1627339135.2,286046998.3,N
1627339155.1,286047001.2,N
1627339156.0,286047001.2,N
1627339175.8,286046998.7,N
1627339195.7,286046999.2,N
1627339215.5,286046998.3,N
1627339235.3,286046998.4,N
1627339255.2,286046998.3,N
1627339275.9,286046999.0,N
1627339295.7,286046998.7,N
1627339315.6,286047000.8,N
1627339335.4,286047000.5,N
1627339355.2,286047000.7,N
1627339375.1,286046998.3,N
1627339376.0,286046998.3,N
1627339395.8,286046998.6,N
1627339415.7,286047000.7,N
1627339435.5,286046998.1,N
1627339455.4,286047000.6,N
1627339475.2,286047000.7,N
1627339495.0,286047001.2,N
1627339495.9,286047001.2,N
1627339515.8,286046998.1,N
1627339535.6,286046998.3,N
1627339555.4,286046996.6,N
1627339575.3,286046997.3,N
1627339595.1,286046994.9,Y
1627339615.9,286046998.0,P
1627339635.7,286046997.1,P
1627339655.5,286046997.8,N
1627339675.4,286046995.0,Y
1627339695.2,286046996.9,P
1627339715.1,286046997.8,P
1627339716.0,286046997.8,P
1627339735.8,286046997.7,Y
1627339755.6,286046998.5,P
1627339775.5,286046998.5,P
1627339795.3,286047000.9,N
1627339815.1,286047000.1,N
1627339835.9,286047000.6,N
1627339855.7,286046999.7,N
1627339875.6,286046999.7,N
1627339895.4,286046999.9,N
1627339915.2,286047002.6,N
1627339935.1,286047002.0,N
1627339936.0,286047002.0,N
1627339955.8,286047004.1,N
1627339975.6,286047003.9,N
1627339995.5,286047003.3,N
1627340015.3,286047003.2,N
1627340035.2,286047004.3,N
1627340055.9,286047004.2,N
1627340075.7,286047003.1,N
1627340095.6,286047003.6,N
1627340115.4,286047003.7,N
1627340135.2,286047003.7,N
1627340155.1,286047003.5,N
1627340156.0,286047003.5,N
1627340175.8,286047004.0,N
1627340195.7,286047004.0,N
1627340215.5,286047001.5,N
1627340235.3,286047002.2,N
1627340255.2,286047002.6,N
1627340275.0,286047002.2,N
1627340275.9,286047002.2,N
1627340295.7,286047001.9,N
1627340315.6,286047002.1,N
1627340335.4,286047002.7,N
1627340355.3,286047002.3,N
1627340375.1,286047000.1,N
1627340376.0,286047000.1,N
1627340395.8,286046999.9,N
